Location: Consuma
(43.7833°N, 11.5833°E)
Time: 15:17:22
(UTC+00:00)

COSMO-SKYMED 1 - Pass Details

Date: 17 February 2020
Orbit: 621 x 623 km, 97.9° (Epoch: 28 March)

Event Time Altitude Azimuth Distance (km) Brightness Sun altitude
Rises 03:58:40 0° 152° (SSE) 2,891 6.3 -24.4°
Reaches altitude 10° 04:00:53 10° 147° (SSE) 1,990 5.5 -24.0°
Maximum altitude 04:05:04 50° 72° (ENE) 802 3.4 -23.3°
Drops below altitude 10° 04:09:17 10° 358° (N) 2,004 5.2 -22.5°
Sets 04:11:31 0° 353° (N) 2,916 6.0 -22.1°
